TimeCDT,TemperatureF,Dew PointF,Humidity,Sea Level PressureIn,VisibilityMPH,Wind Direction,Wind SpeedMPH,Gust SpeedMPH,PrecipitationIn,Events,Conditions,WindDirDegrees,DateUTC
12:15 AM,41.0,37.4,87,30.02,10.0,NE,3.5,-,N/A,,Clear,50,2012-09-30 05:15:00
1:04 AM,41.0,39.2,93,30.02,10.0,Calm,Calm,-,N/A,,Clear,0,2012-09-30 06:04:00
1:15 AM,37.4,35.6,93,30.02,10.0,Calm,Calm,-,N/A,,Clear,0,2012-09-30 06:15:00
1:35 AM,39.2,37.4,93,30.02,10.0,NNE,3.5,-,N/A,,Clear,30,2012-09-30 06:35:00
1:55 AM,39.2,37.4,93,30.02,10.0,Calm,Calm,-,N/A,,Clear,0,2012-09-30 06:55:00
2:15 AM,37.4,37.4,100,30.02,10.0,Calm,Calm,-,N/A,,Clear,0,2012-09-30 07:15:00
2:35 AM,37.4,37.4,100,30.02,10.0,Calm,Calm,-,N/A,,Clear,0,2012-09-30 07:35:00
2:55 AM,37.4,37.4,100,30.01,10.0,Calm,Calm,-,N/A,,Clear,0,2012-09-30 07:55:00
3:15 AM,35.6,35.6,100,30.02,10.0,Calm,Calm,-,N/A,,Clear,0,2012-09-30 08:15:00
3:35 AM,37.4,37.4,100,30.02,10.0,Calm,Calm,-,N/A,,Clear,0,2012-09-30 08:35:00
4:15 AM,33.8,33.8,100,30.02,10.0,Calm,Calm,-,N/A,,Clear,0,2012-09-30 09:15:00
4:35 AM,33.8,33.8,100,30.02,10.0,Calm,Calm,-,N/A,,Clear,0,2012-09-30 09:35:00
4:55 AM,33.8,33.8,100,30.02,10.0,Calm,Calm,-,N/A,,Clear,0,2012-09-30 09:55:00
5:15 AM,33.8,33.8,100,30.02,10.0,Calm,Calm,-,N/A,,Clear,0,2012-09-30 10:15:00
5:35 AM,32.0,32.0,100,30.02,10.0,Calm,Calm,-,N/A,,Clear,0,2012-09-30 10:35:00
5:55 AM,32.0,32.0,100,30.02,10.0,Calm,Calm,-,N/A,,Clear,0,2012-09-30 10:55:00
6:15 AM,32.0,32.0,100,30.02,10.0,Calm,Calm,-,N/A,,Clear,0,2012-09-30 11:15:00
6:35 AM,32.0,32.0,100,30.03,10.0,Calm,Calm,-,N/A,,Clear,0,2012-09-30 11:35:00
6:55 AM,32.0,32.0,100,30.03,10.0,Calm,Calm,-,N/A,,Clear,0,2012-09-30 11:55:00
7:15 AM,32.0,32.0,100,30.04,10.0,Calm,Calm,-,N/A,,Clear,0,2012-09-30 12:15:00
7:35 AM,32.0,32.0,100,30.04,10.0,Calm,Calm,-,N/A,,Mostly Cloudy,0,2012-09-30 12:35:00
7:55 AM,35.6,35.6,100,30.04,10.0,Calm,Calm,-,N/A,,Scattered Clouds,0,2012-09-30 12:55:00
8:15 AM,41.0,41.0,100,30.04,10.0,Calm,Calm,-,N/A,,Clear,0,2012-09-30 13:15:00
8:35 AM,44.6,42.8,93,30.04,10.0,Calm,Calm,-,N/A,,Clear,0,2012-09-30 13:35:00
8:55 AM,46.4,42.8,87,30.04,10.0,ENE,3.5,-,N/A,,Clear,60,2012-09-30 13:55:00
9:15 AM,50.0,42.8,76,30.04,10.0,ENE,3.5,-,N/A,,Clear,60,2012-09-30 14:15:00
9:35 AM,51.8,44.6,76,30.04,10.0,Calm,Calm,-,N/A,,Clear,0,2012-09-30 14:35:00
9:55 AM,53.6,44.6,72,30.04,10.0,ENE,4.6,-,N/A,,Clear,70,2012-09-30 14:55:00
10:15 AM,55.4,44.6,67,30.03,10.0,ENE,6.9,-,N/A,,Clear,60,2012-09-30 15:15:00
10:35 AM,59.0,44.6,59,30.03,10.0,Calm,Calm,-,N/A,,Clear,0,2012-09-30 15:35:00
10:55 AM,60.8,44.6,55,30.02,10.0,Calm,Calm,-,N/A,,Clear,0,2012-09-30 15:55:00
11:15 AM,60.8,44.6,55,30.02,10.0,Calm,Calm,-,N/A,,Clear,0,2012-09-30 16:15:00
11:35 AM,62.6,44.6,52,30.01,10.0,Calm,Calm,-,N/A,,Clear,0,2012-09-30 16:35:00
11:55 AM,64.4,42.8,45,30.00,10.0,ESE,3.5,-,N/A,,Clear,120,2012-09-30 16:55:00
12:15 PM,64.4,42.8,45,30.01,10.0,Calm,Calm,-,N/A,,Clear,0,2012-09-30 17:15:00
12:35 PM,66.2,41.0,40,30.00,10.0,ESE,5.8,-,N/A,,Clear,110,2012-09-30 17:35:00
12:55 PM,68.0,41.0,37,30.00,10.0,Calm,Calm,-,N/A,,Clear,0,2012-09-30 17:55:00
1:15 PM,68.0,39.2,35,29.99,10.0,East,3.5,-,N/A,,Clear,80,2012-09-30 18:15:00
1:35 PM,68.0,37.4,33,29.98,10.0,East,5.8,-,N/A,,Clear,90,2012-09-30 18:35:00
1:55 PM,69.8,37.4,31,29.97,10.0,North,5.8,-,N/A,,Clear,360,2012-09-30 18:55:00
2:15 PM,69.8,37.4,31,29.97,10.0,Calm,Calm,-,N/A,,Clear,0,2012-09-30 19:15:00
2:35 PM,69.8,37.4,31,29.96,10.0,NE,5.8,-,N/A,,Clear,50,2012-09-30 19:35:00
2:55 PM,71.6,35.6,27,29.96,10.0,Calm,Calm,-,N/A,,Clear,0,2012-09-30 19:55:00
3:15 PM,71.6,35.6,27,29.96,10.0,Calm,Calm,-,N/A,,Clear,0,2012-09-30 20:15:00
3:35 PM,71.6,35.6,27,29.95,10.0,Calm,Calm,-,N/A,,Clear,0,2012-09-30 20:35:00
3:55 PM,73.4,35.6,25,29.94,10.0,North,3.5,-,N/A,,Clear,360,2012-09-30 20:55:00
4:15 PM,71.6,35.6,27,29.94,10.0,Calm,Calm,-,N/A,,Clear,0,2012-09-30 21:15:00
4:35 PM,69.8,35.6,28,29.93,10.0,Calm,Calm,-,N/A,,Clear,0,2012-09-30 21:35:00
4:55 PM,69.8,37.4,31,29.93,10.0,SE,3.5,-,N/A,,Clear,130,2012-09-30 21:55:00
5:15 PM,69.8,35.6,28,29.93,10.0,ESE,3.5,-,N/A,,Clear,110,2012-09-30 22:15:00
5:55 PM,68.0,37.4,33,29.93,10.0,SSE,3.5,-,N/A,,Clear,150,2012-09-30 22:55:00
6:15 PM,68.0,37.4,33,29.93,10.0,Calm,Calm,-,N/A,,Clear,0,2012-09-30 23:15:00
6:35 PM,66.2,39.2,37,29.93,10.0,Calm,Calm,-,N/A,,Clear,0,2012-09-30 23:35:00
6:55 PM,60.8,41.0,48,29.93,10.0,Calm,Calm,-,N/A,,Clear,0,2012-09-30 23:55:00
7:15 PM,53.6,41.0,62,29.93,10.0,Calm,Calm,-,N/A,,Clear,0,2012-10-01 00:15:00
7:35 PM,53.6,41.0,62,29.93,10.0,Calm,Calm,-,N/A,,Clear,0,2012-10-01 00:35:00
7:55 PM,51.8,41.0,67,29.93,10.0,Calm,Calm,-,N/A,,Clear,0,2012-10-01 00:55:00
8:15 PM,50.0,41.0,71,29.93,10.0,Calm,Calm,-,N/A,,Clear,0,2012-10-01 01:15:00
8:35 PM,48.2,41.0,76,29.93,10.0,Calm,Calm,-,N/A,,Clear,0,2012-10-01 01:35:00
8:55 PM,46.4,39.2,76,29.94,10.0,Calm,Calm,-,N/A,,Clear,0,2012-10-01 01:55:00
9:15 PM,46.4,41.0,81,29.94,10.0,Calm,Calm,-,N/A,,Clear,0,2012-10-01 02:15:00
9:35 PM,46.4,41.0,81,29.94,10.0,Calm,Calm,-,N/A,,Clear,0,2012-10-01 02:35:00
9:55 PM,44.6,39.2,81,29.94,10.0,Calm,Calm,-,N/A,,Clear,0,2012-10-01 02:55:00
10:15 PM,42.8,37.4,81,29.94,10.0,Calm,Calm,-,N/A,,Clear,0,2012-10-01 03:15:00
10:35 PM,42.8,37.4,81,29.94,10.0,Calm,Calm,-,N/A,,Clear,0,2012-10-01 03:35:00
10:55 PM,42.8,37.4,81,29.94,10.0,Calm,Calm,-,N/A,,Clear,0,2012-10-01 03:55:00
11:15 PM,42.8,37.4,81,29.94,10.0,Calm,Calm,-,N/A,,Clear,0,2012-10-01 04:15:00
11:35 PM,42.8,41.0,93,29.94,10.0,Calm,Calm,-,N/A,,Clear,0,2012-10-01 04:35:00
11:55 PM,41.0,39.2,93,29.93,10.0,Calm,Calm,-,N/A,,Clear,0,2012-10-01 04:55:00